{"data":{"norad_id":63471,"intl_designator":"2025-070M","name":"STARLINK-33744","alt_names":[],"object_type":"PAYLOAD","status":"ACTIVE","operator":null,"country":"US","launch_date":"2025-04-06","launch_site_code":"AFETR","launch_vehicle":null,"mission":null,"orbit_class":"UNKNOWN","rcs_meters":null,"size_class":null,"mass_kg":null,"dimensions":null,"purposes":["comms"],"wikipedia_slug":null,"has_3d_model":false,"image_url":null,"decayed_at":null,"tle_current":{"epoch":"2026-05-25T03:00:45.929376Z","epoch_age_seconds":60732,"freshness":"FRESH","line1":"1 63471U 25070M   26145.12553159  .00010821  00000+0  40205-3 0  9999","line2":"2 63471  42.9989 188.3553 0001420 241.8525 118.2183 15.27589726 64669","mean_motion":15.27589726,"eccentricity":0.000142,"inclination_deg":42.9989,"raan_deg":188.3553,"arg_perigee_deg":241.8525,"mean_anomaly_deg":118.2183,"bstar":0.00040205,"rev_number":6466,"period_min":94.26614852737,"perigee_km":482.04568876109,"apogee_km":483.99425734144,"semimajor_km":6861.1569730513,"source":"CELESTRAK","updated_at":"2026-05-25T13:38:20.006989Z"}}}